This demonstration page uses our WeatherBlox Daily Observations layout. Learn more.

Left ArrowRight Arrow

Hourly Observations for May 4, 2019

Temp ( °F °C ) Dew Point ( °F °C ) Humidity (%) Winds ( mph kmh ) Pressure ( in mb ) Visibility ( mi km ) Precip ( " mm )
12:52 am 00:52 Cloudy 57 13.9 55 12.8 93 93 E 3 6 29.91 1013 10 16 0.00 0.00
1:18 am 01:18 Cloudy 57 13.9 55 12.8 93 93 N 6 9 29.92 1013 10 16 0.00 0.00
1:34 am 01:34 Cloudy 57 13.9 55 12.8 93 93 N 6 9 29.92 1013 10 16 0.00 0.00
1:52 am 01:52 Cloudy 57 13.9 55 12.8 93 93 N 6 9 29.92 1013 10 16 0.00 0.00
2:37 am 02:37 Cloudy with Mist and Fog 56 13.3 54 12.2 93 93 N 8 13 29.94 1014 2 3 0.00 0.00
2:47 am 02:47 Mostly Cloudy with Fog 55 13 54 12 94 94 N 7 11 29.95 1014 1 1 0.00 0.00
2:52 am 02:52 Mostly Cloudy with Fog 55 12.8 54 12.2 96 96 N 8 13 29.93 1013 1 1 0.00 0.00
3:11 am 03:11 Cloudy with Mist and Fog 55 12.8 54 12.2 96 96 NNE 7 11 29.94 1014 2 3 0.00 0.00
3:20 am 03:20 Cloudy with Mist and Fog 55 12.8 53 11.7 93 93 NNE 8 13 29.94 1014 5 8 0.00 0.00
3:32 am 03:32 Cloudy with Mist and Fog 55 12.8 53 11.7 93 93 N 7 11 29.94 1014 2 3 0.00 0.00
3:47 am 03:47 Mostly Cloudy with Fog 55 13 54 12 94 94 N 8 13 29.94 1014 1 1 0.00 0.00
3:52 am 03:52 Mostly Cloudy with Fog 55 12.8 53 11.7 93 93 N 7 11 29.92 1013 1 1 0.00 0.00
4:05 am 04:05 Cloudy with Mist and Fog 55 12.8 53 11.7 93 93 N 7 11 29.94 1014 2 3 0.00 0.00
4:13 am 04:13 Cloudy with Mist and Fog 55 12.8 53 11.7 93 93 N 6 9 29.94 1014 6 10 0.00 0.00
4:46 am 04:46 Cloudy with Mist and Fog 55 13 54 12 94 94 N 8 13 29.95 1014 2 2 0.00 0.00
4:52 am 04:52 Mostly Cloudy with Mist and Fog 54 12.2 53 11.7 97 97 N 8 13 29.93 1014 1 1 0.00 0.00
5:08 am 05:08 Cloudy with Mist and Fog 55 12.8 53 11.7 93 93 N 9 15 29.95 1014 2 3 0.00 0.00
5:21 am 05:21 Cloudy with Mist and Fog 54 12.2 53 11.7 97 97 N 9 15 29.94 1014 3 5 0.00 0.00
5:33 am 05:33 Cloudy with Mist and Fog 55 12.8 53 11.7 93 93 N 7 11 29.94 1014 2 3 0.00 0.00
5:45 am 05:45 Cloudy with Mist and Fog 54 12.2 53 11.7 97 97 N 7 11 29.94 1014 3 5 0.00 0.00
5:52 am 05:52 Cloudy with Mist and Fog 54 12.2 53 11.7 97 97 N 10 17 29.93 1014 6 10 0.00 0.00
6:02 am 06:02 Cloudy with Mist and Fog 54 12.2 53 11.7 97 97 N 10 17 29.95 1014 2 3 0.00 0.00
6:15 am 06:15 Mostly Cloudy with Mist and Fog 54 12.2 53 11.7 97 97 N 9 15 29.94 1014 1 1 0.00 0.00
6:20 am 06:20 Cloudy with Mist and Fog 54 12.2 53 11.7 97 97 N 9 15 29.94 1014 2 3 0.00 0.00
6:29 am 06:29 Cloudy with Mist and Fog 54 12.2 53 11.7 97 97 N 12 19 29.94 1014 4 6 0.00 0.00
6:34 am 06:34 Cloudy with Mist and Fog 54 12.2 53 11.7 97 97 N 12 19 29.94 1014 2 2 0.00 0.00
6:44 am 06:44 Mostly Cloudy with Fog 54 12.2 53 11.7 97 97 N 7 11 29.93 1014 1 1 0.00 0.00
6:52 am 06:52 Mostly Cloudy with Fog 54 12.2 53 11.7 97 97 N 9 15 29.92 1013 0 0 0.00 0.00
7:00 am 07:00 Mostly Cloudy with Fog 54 12.2 53 11.7 97 97 N 10 17 29.93 1014 1 1 0.00 0.00
7:11 am 07:11 Cloudy with Mist and Fog 54 12.2 52 11.1 93 93 N 9 15 29.94 1014 2 2 0.00 0.00
7:15 am 07:15 Cloudy with Mist and Fog 54 12.2 53 11.7 97 97 N 9 15 29.94 1014 3 5 0.00 0.00
7:52 am 07:52 Cloudy with Mist and Fog 54 12.2 52 11.1 93 93 N 8 13 29.94 1014 4 6 0.00 0.00
8:28 am 08:28 Cloudy 55 12.8 52 11.1 90 90 NE 5 7 29.97 1015 7 11 0.00 0.00
8:52 am 08:52 Cloudy 55 12.8 53 11.7 93 93 NNE 6 9 29.96 1015 10 16 0.00 0.00
9:27 am 09:27 Cloudy 56 13.3 53 11.7 90 90 N 8 13 29.98 1015 10 16 0.00 0.00
9:52 am 09:52 Cloudy 56 13.3 52 11.1 87 87 NE 8 13 29.97 1015 9 14 0.00 0.00
10:52 am 10:52 Cloudy 56 13.3 52 11.1 87 87 NNE 9 15 29.98 1015 10 16 0.00 0.03
11:52 am 11:52 Cloudy 57 13.9 52 11.1 83 83 N 10 17 29.97 1015 10 16 0.00 0.00
12:16 pm 12:16 Cloudy 57 13.9 52 11.1 83 83 NNE 10 17 29.97 1015 10 16 0.00 0.00
12:52 pm 12:52 Cloudy 58 14.4 52 11.1 81 81 NNE 10 17 29.96 1015 10 16 0.00 0.00
1:02 pm 13:02 Cloudy 59 15 52 11.1 78 78 NNE 8 13 29.97 1015 10 16 0.00 0.00
1:52 pm 13:52 Cloudy 61 16.1 52 11.1 72 72 NNW 9 15 29.95 1014 10 16 0.00 0.00
2:52 pm 14:52 Cloudy 63 17.2 52 11.1 68 68 NNE 12 19 29.93 1014 10 16 0.00 0.00
3:09 pm 15:09 Partly Cloudy 64 17.8 52 11.1 65 65 VRB 7 11 29.92 1013 10 16 0.00 0.00
3:52 pm 15:52 Mostly Sunny 65 18.3 51 10.6 61 61 NNE 9 15 29.92 1013 10 16 0.00 0.00
4:52 pm 16:52 Mostly Sunny 65 18.3 51 10.6 61 61 VRB 3 6 29.90 1013 10 16 0.00 0.00
5:52 pm 17:52 Mostly Sunny 66 18.9 51 10.6 59 59 NE 9 15 29.89 1012 10 16 0.00 0.00
6:52 pm 18:52 Sunny 64 17.8 49 9.4 58 58 NE 8 13 29.88 1012 10 16 0.00 0.00
7:52 pm 19:52 Sunny 62 16.7 48 8.9 60 60 NNE 3 6 29.88 1012 10 16 0.00 0.00
8:52 pm 20:52 Clear 54 12.2 48 8.9 80 80 Calm 29.89 1012 10 16 0.00 0.00
9:52 pm 21:52 Clear 52 11.1 48 8.9 86 86 Calm 29.91 1013 10 16 0.00 0.00
10:52 pm 22:52 Clear 50 10 47 8.3 89 89 SSE 3 6 29.91 1013 10 16 0.00 0.00
11:52 pm 23:52 Clear 50 10 47 8.3 89 89 Calm 29.91 1013 10 16 0.00 0.00

Powered by AerisWeather